| time (UTC) | temp C | wind direction | speed KPH | gust KPH | rain 1hr cm | rain 24hr cm | rain mn cm | humidity % | barometer mb |
| 20260505041547 | 13 | 357 | 11.3 | 22.5 | 0.00 | 0.00 | 0.00 | 43 | 1008.1 |
| 20260505040547 | 13 | 325 | 14.5 | 22.5 | 0.00 | 0.00 | 0.00 | 42 | 1008.1 |
| 20260505040047 | 13 | 339 | 14.5 | 25.7 | 0.00 | 0.00 | 0.00 | 42 | 1008.0 |
| 20260505035547 | 13 | 326 | 19.3 | 27.4 | 0.00 | 0.00 | 0.00 | 42 | 1007.9 |
| 20260505035047 | 13 | 330 | 8.0 | 27.4 | 0.00 | 0.00 | 0.00 | 44 | 1007.7 |
| 20260505034547 | 13 | 350 | 12.9 | 24.1 | 0.00 | 0.00 | 0.00 | 43 | 1008.0 |
| 20260505034047 | 13 | 339 | 11.3 | 19.3 | 0.00 | 0.00 | 0.00 | 43 | 1007.7 |
| 20260505033547 | 14 | 354 | 9.7 | 19.3 | 0.00 | 0.00 | 0.00 | 43 | 1007.6 |
| 20260505032547 | 14 | 328 | 11.3 | 20.9 | 0.00 | 0.00 | 0.00 | 44 | 1007.6 |
| 20260505031547 | 14 | 344 | 11.3 | 22.5 | 0.00 | 0.00 | 0.00 | 44 | 1007.5 |
| 20260505031047 | 14 | 355 | 11.3 | 24.1 | 0.00 | 0.00 | 0.00 | 43 | 1007.4 |
| 20260505030048 | 15 | 338 | 11.3 | 27.4 | 0.00 | 0.00 | 0.00 | 43 | 1007.3 |
| 20260505025548 | 15 | 347 | 12.9 | 25.7 | 0.00 | 0.00 | 0.00 | 43 | 1007.2 |
| 20260505025047 | 15 | 336 | 11.3 | 25.7 | 0.00 | 0.00 | 0.00 | 43 | 1007.1 |
| 20260505024547 | 15 | 350 | 12.9 | 24.1 | 0.00 | 0.00 | 0.00 | 43 | 1006.7 |
| 20260505024048 | 15 | 327 | 9.7 | 24.1 | 0.00 | 0.00 | 0.00 | 43 | 1006.6 |
| 20260505023547 | 15 | 346 | 16.1 | 25.7 | 0.00 | 0.00 | 0.00 | 43 | 1006.5 |
| 20260505023047 | 15 | 344 | 17.7 | 33.8 | 0.00 | 0.00 | 0.00 | 42 | 1006.2 |
| 20260505022547 | 15 | 340 | 16.1 | 27.4 | 0.00 | 0.00 | 0.00 | 42 | 1006.1 |
| 20260505022047 | 15 | 349 | 14.5 | 25.7 | 0.00 | 0.00 | 0.00 | 42 | 1006.0 |
| 20260505021547 | 15 | 352 | 16.1 | 32.2 | 0.00 | 0.00 | 0.00 | 41 | 1005.9 |
| 20260505021048 | 15 | 327 | 17.7 | 35.4 | 0.00 | 0.00 | 0.00 | 41 | 1006.1 |
| 20260505020547 | 15 | 347 | 19.3 | 33.8 | 0.00 | 0.00 | 0.00 | 40 | 1006.0 |
| 20260505020047 | 16 | 336 | 17.7 | 35.4 | 0.00 | 0.00 | 0.00 | 40 | 1006.0 |
| 20260505015547 | 16 | 328 | 14.5 | 27.4 | 0.00 | 0.00 | 0.00 | 40 | 1005.8 |
| 20260505015047 | 16 | 330 | 20.9 | 35.4 | 0.00 | 0.00 | 0.00 | 39 | 1005.5 |
| 20260505013048 | 17 | 330 | 20.9 | 37.0 | 0.00 | 0.00 | 0.00 | 36 | 1005.1 |
| 20260505012547 | 17 | 328 | 19.3 | 38.6 | 0.00 | 0.00 | 0.00 | 35 | 1005.0 |
| 20260505012047 | 17 | 334 | 19.3 | 29.0 | 0.00 | 0.00 | 0.00 | 34 | 1005.0 |
| 20260505011547 | 18 | 328 | 11.3 | 22.5 | 0.00 | 0.00 | 0.00 | 34 | 1005.0 |
| 20260505011047 | 18 | 340 | 12.9 | 27.4 | 0.00 | 0.00 | 0.00 | 33 | 1004.7 |
| 20260505010548 | 18 | 337 | 19.3 | 33.8 | 0.00 | 0.00 | 0.00 | 33 | 1004.8 |
| 20260505010048 | 18 | 330 | 20.9 | 33.8 | 0.00 | 0.00 | 0.00 | 32 | 1004.7 |
| 20260505005547 | 19 | 324 | 20.9 | 35.4 | 0.00 | 0.00 | 0.00 | 32 | 1004.4 |
| 20260505005047 | 19 | 338 | 19.3 | 33.8 | 0.00 | 0.00 | 0.00 | 31 | 1004.4 |
| 20260505004548 | 20 | 329 | 19.3 | 33.8 | 0.00 | 0.00 | 0.00 | 31 | 1004.3 |
| 20260505004047 | 20 | 337 | 17.7 | 29.0 | 0.00 | 0.00 | 0.00 | 31 | 1004.3 |
| 20260505003547 | 20 | 327 | 14.5 | 29.0 | 0.00 | 0.00 | 0.00 | 32 | 1003.9 |
| 20260505002547 | 20 | 343 | 16.1 | 29.0 | 0.00 | 0.00 | 0.00 | 30 | 1004.1 |
| 20260505002047 | 20 | 334 | 19.3 | 29.0 | 0.00 | 0.00 | 0.00 | 30 | 1003.7 |
| 20260505001547 | 21 | 318 | 20.9 | 32.2 | 0.00 | 0.00 | 0.00 | 29 | 1003.8 |
| 20260505001048 | 21 | 322 | 17.7 | 33.8 | 0.00 | 0.00 | 0.00 | 29 | 1003.8 |
| 20260505000547 | 21 | 331 | 17.7 | 29.0 | 0.00 | 0.00 | 0.00 | 29 | 1003.7 |
| 20260505000047 | 21 | 328 | 20.9 | 27.4 | 0.00 | 0.00 | 0.00 | 28 | 1003.7 |
| 20260504235547 | 21 | 328 | 19.3 | 32.2 | 0.00 | 0.00 | 0.00 | 28 | 1003.6 |
| 20260504235047 | 22 | 333 | 12.9 | 22.5 | 0.00 | 0.00 | 0.00 | 28 | 1003.6 |
| 20260504234548 | 22 | 325 | 22.5 | 27.4 | 0.00 | 0.00 | 0.00 | 27 | 1003.5 |
| 20260504234047 | 22 | 332 | 16.1 | 37.0 | 0.00 | 0.00 | 0.00 | 27 | 1003.6 |
| 20260504233547 | 22 | 331 | 19.3 | 32.2 | 0.00 | 0.00 | 0.00 | 26 | 1003.5 |
| 20260504233047 | 23 | 339 | 16.1 | 25.7 | 0.00 | 0.00 | 0.00 | 26 | 1003.3 |
| 20260504232547 | 23 | 332 | 16.1 | 32.2 | 0.00 | 0.00 | 0.00 | 26 | 1003.1 |
| 20260504232047 | 23 | 326 | 19.3 | 29.0 | 0.00 | 0.00 | 0.00 | 25 | 1003.0 |
| 20260504231048 | 23 | 340 | 12.9 | 24.1 | 0.00 | 0.00 | 0.00 | 26 | 1002.9 |
| 20260504230547 | 24 | 332 | 17.7 | 25.7 | 0.00 | 0.00 | 0.00 | 26 | 1002.7 |
| 20260504230048 | 24 | 337 | 19.3 | 29.0 | 0.00 | 0.00 | 0.00 | 24 | 1002.7 |
| 20260504225548 | 24 | 330 | 17.7 | 33.8 | 0.00 | 0.00 | 0.00 | 25 | 1002.6 |
| 20260504224547 | 25 | 333 | 17.7 | 29.0 | 0.00 | 0.00 | 0.00 | 24 | 1002.4 |
| 20260504224048 | 25 | 326 | 16.1 | 25.7 | 0.00 | 0.00 | 0.00 | 24 | 1002.3 |
| 20260504223548 | 25 | 336 | 17.7 | 29.0 | 0.00 | 0.00 | 0.00 | 24 | 1002.1 |
| 20260504223048 | 26 | 348 | 11.3 | 19.3 | 0.00 | 0.00 | 0.00 | 26 | 1002.0 |
| 20260504222548 | 26 | 346 | 9.7 | 19.3 | 0.00 | 0.00 | 0.00 | 27 | 1001.8 |
| 20260504222048 | 26 | 355 | 11.3 | 25.7 | 0.00 | 0.00 | 0.00 | 26 | 1001.8 |
| 20260504221548 | 26 | 334 | 12.9 | 22.5 | 0.00 | 0.00 | 0.00 | 25 | 1001.8 |
| 20260504221047 | 26 | 343 | 12.9 | 24.1 | 0.00 | 0.00 | 0.00 | 26 | 1001.5 |
| 20260504220048 | 26 | 9 | 11.3 | 22.5 | 0.00 | 0.00 | 0.00 | 27 | 1001.4 |
| 20260504215547 | 26 | 320 | 19.3 | 25.7 | 0.00 | 0.00 | 0.00 | 26 | 1001.3 |
| 20260504215047 | 26 | 334 | 16.1 | 25.7 | 0.00 | 0.00 | 0.00 | 27 | 1001.4 |
| 20260504214548 | 26 | 350 | 12.9 | 22.5 | 0.00 | 0.00 | 0.00 | 28 | 1001.4 |
| 20260504214048 | 27 | 318 | 17.7 | 22.5 | 0.00 | 0.00 | 0.00 | 26 | 1001.4 |
| 20260504213547 | 27 | 338 | 16.1 | 20.9 | 0.00 | 0.00 | 0.00 | 27 | 1001.4 |
| 20260504213047 | 27 | 321 | 16.1 | 24.1 | 0.00 | 0.00 | 0.00 | 27 | 1001.3 |
| 20260504212548 | 27 | 330 | 14.5 | 27.4 | 0.00 | 0.00 | 0.00 | 26 | 1001.3 |
| 20260504212048 | 27 | 318 | 19.3 | 25.7 | 0.00 | 0.00 | 0.00 | 26 | 1001.2 |
| 20260504211547 | 27 | 318 | 17.7 | 24.1 | 0.00 | 0.00 | 0.00 | 27 | 1001.2 |
| 20260504211047 | 27 | 329 | 14.5 | 25.7 | 0.00 | 0.00 | 0.00 | 26 | 1001.1 |
| 20260504210547 | 27 | 343 | 11.3 | 19.3 | 0.00 | 0.00 | 0.00 | 27 | 1001.1 |
| 20260504210048 | 27 | 333 | 16.1 | 25.7 | 0.00 | 0.00 | 0.00 | 27 | 1001.1 |
| 20260504205047 | 28 | 321 | 16.1 | 25.7 | 0.00 | 0.00 | 0.00 | 27 | 1001.1 |
| 20260504204547 | 28 | 322 | 11.3 | 24.1 | 0.00 | 0.00 | 0.00 | 24 | 1001.0 |
| 20260504204048 | 28 | 322 | 16.1 | 25.7 | 0.00 | 0.00 | 0.00 | 23 | 1001.1 |
| 20260504203547 | 28 | 330 | 16.1 | 27.4 | 0.00 | 0.00 | 0.00 | 24 | 1001.1 |
| 20260504203048 | 28 | 318 | 11.3 | 29.0 | 0.00 | 0.00 | 0.00 | 24 | 1001.0 |
| 20260504202548 | 28 | 330 | 12.9 | 20.9 | 0.00 | 0.00 | 0.00 | 24 | 1001.0 |
| 20260504202047 | 28 | 320 | 17.7 | 24.1 | 0.00 | 0.00 | 0.00 | 23 | 1001.0 |
| 20260504201547 | 28 | 324 | 14.5 | 22.5 | 0.00 | 0.00 | 0.00 | 24 | 1001.0 |
| 20260504201048 | 28 | 308 | 11.3 | 22.5 | 0.00 | 0.00 | 0.00 | 22 | 1001.0 |
| 20260504200047 | 28 | 308 | 11.3 | 20.9 | 0.00 | 0.00 | 0.00 | 20 | 1001.0 |
| 20260504195548 | 28 | 315 | 16.1 | 25.7 | 0.00 | 0.00 | 0.00 | 20 | 1001.0 |
| 20260504195048 | 28 | 325 | 16.1 | 25.7 | 0.00 | 0.00 | 0.00 | 22 | 1000.9 |
| 20260504194548 | 28 | 327 | 11.3 | 24.1 | 0.00 | 0.00 | 0.00 | 22 | 1000.9 |
| 20260504193548 | 28 | 325 | 14.5 | 29.0 | 0.00 | 0.00 | 0.00 | 20 | 1000.8 |
| 20260504193048 | 28 | 309 | 9.7 | 25.7 | 0.00 | 0.00 | 0.00 | 20 | 1000.8 |
| 20260504192548 | 28 | 315 | 19.3 | 33.8 | 0.00 | 0.00 | 0.00 | 21 | 1000.6 |
| 20260504192048 | 28 | 324 | 14.5 | 22.5 | 0.00 | 0.00 | 0.00 | 22 | 1000.9 |
| 20260504191547 | 28 | 311 | 14.5 | 27.4 | 0.00 | 0.00 | 0.00 | 22 | 1000.9 |
| 20260504190547 | 28 | 338 | 16.1 | 25.7 | 0.00 | 0.00 | 0.00 | 22 | 1000.9 |
| 20260504190048 | 28 | 305 | 4.8 | 14.5 | 0.00 | 0.00 | 0.00 | 20 | 1000.9 |
| 20260504185548 | 28 | 293 | 11.3 | 20.9 | 0.00 | 0.00 | 0.00 | 19 | 1000.9 |
| 20260504185048 | 28 | 320 | 16.1 | 25.7 | 0.00 | 0.00 | 0.00 | 19 | 1000.8 |
| 20260504184548 | 28 | 331 | 16.1 | 27.4 | 0.00 | 0.00 | 0.00 | 19 | 1000.9 |
| 20260504184048 | 28 | 317 | 8.0 | 19.3 | 0.00 | 0.00 | 0.00 | 19 | 1000.9 |
| 20260504183548 | 28 | 317 | 9.7 | 16.1 | 0.00 | 0.00 | 0.00 | 18 | 1001.0 |
| 20260504183048 | 28 | 299 | 9.7 | 24.1 | 0.00 | 0.00 | 0.00 | 20 | 1001.0 |
| 20260504182548 | 27 | 318 | 14.5 | 24.1 | 0.00 | 0.00 | 0.00 | 24 | 1001.0 |
| 20260504182048 | 27 | 322 | 14.5 | 22.5 | 0.00 | 0.00 | 0.00 | 24 | 1001.1 |
| 20260504181547 | 27 | 324 | 16.1 | 25.7 | 0.00 | 0.00 | 0.00 | 24 | 1001.2 |
| 20260504181048 | 27 | 333 | 9.7 | 20.9 | 0.00 | 0.00 | 0.00 | 23 | 1001.2 |
| 20260504180547 | 27 | 257 | 4.8 | 19.3 | 0.00 | 0.00 | 0.00 | 27 | 1001.2 |
| 20260504180047 | 27 | 307 | 8.0 | 16.1 | 0.00 | 0.00 | 0.00 | 26 | 1001.3 |
| 20260504175547 | 27 | 258 | 4.8 | 12.9 | 0.00 | 0.00 | 0.00 | 29 | 1001.3 |
| 20260504175047 | 27 | 332 | 11.3 | 19.3 | 0.00 | 0.00 | 0.00 | 26 | 1001.3 |
| 20260504174048 | 27 | 323 | 11.3 | 24.1 | 0.00 | 0.00 | 0.00 | 26 | 1001.5 |
| 20260504173548 | 27 | 318 | 17.7 | 24.1 | 0.00 | 0.00 | 0.00 | 25 | 1001.5 |
| 20260504173047 | 27 | 320 | 14.5 | 20.9 | 0.00 | 0.00 | 0.00 | 25 | 1001.5 |
| 20260504172547 | 27 | 323 | 9.7 | 20.9 | 0.00 | 0.00 | 0.00 | 27 | 1001.5 |
| 20260504172048 | 27 | 320 | 6.4 | 19.3 | 0.00 | 0.00 | 0.00 | 26 | 1001.5 |
| 20260504171548 | 27 | 304 | 9.7 | 14.5 | 0.00 | 0.00 | 0.00 | 26 | 1001.8 |
| 20260504171048 | 27 | 322 | 9.7 | 12.9 | 0.00 | 0.00 | 0.00 | 25 | 1001.6 |
| 20260504170548 | 27 | 309 | 8.0 | 14.5 | 0.00 | 0.00 | 0.00 | 27 | 1001.6 |
| 20260504151048 | 21 | 311 | 3.2 | 9.7 | 0.00 | 0.00 | 0.00 | 40 | 1001.8 |
| 20260504150548 | 21 | 300 | 6.4 | 12.9 | 0.00 | 0.00 | 0.00 | 43 | 1001.6 |
| 20260504141048 | 18 | 305 | 8.0 | 14.5 | 0.00 | 0.00 | 0.00 | 50 | 1002.2 |
| 20260504140548 | 18 | 297 | 3.2 | 11.3 | 0.00 | 0.00 | 0.00 | 49 | 1002.1 |
| 20260504130548 | 15 | 110 | 0.0 | 0.0 | 0.00 | 0.00 | 0.00 | 63 | 1001.5 |
| 20260504110548 | 13 | 127 | 1.6 | 3.2 | 0.00 | 0.00 | 0.00 | 59 | 1001.5 |
| 20260504100548 | 14 | 167 | 4.8 | 8.0 | 0.00 | 0.00 | 0.00 | 55 | 1001.8 |
| 20260504081548 | 14 | 120 | 0.0 | 1.6 | 0.00 | 0.00 | 0.00 | 54 | 1003.3 |
| 20260504081048 | 14 | 173 | 3.2 | 8.0 | 0.00 | 0.00 | 0.00 | 54 | 1003.2 |
| 20260504080548 | 14 | 194 | 4.8 | 9.7 | 0.00 | 0.00 | 0.00 | 54 | 1003.3 |
| 20260504050548 | 16 | 176 | 0.0 | 0.0 | 0.00 | 0.00 | 0.00 | 47 | 1006.4 |
| 20260504045048 | 15 | 128 | 0.0 | 0.0 | 0.00 | 0.00 | 0.00 | 47 | 1006.6 |
| 20260504044549 | 16 | 128 | 0.0 | 0.0 | 0.00 | 0.00 | 0.00 | 48 | 1006.6 |
| 20260504044048 | 16 | 128 | 0.0 | 0.0 | 0.00 | 0.00 | 0.00 | 47 | 1006.7 |
| 20260504043548 | 16 | 128 | 0.0 | 0.0 | 0.00 | 0.00 | 0.00 | 47 | 1006.8 |
| 20260504042548 | 16 | 128 | 0.0 | 0.0 | 0.00 | 0.00 | 0.00 | 47 | 1006.9 |